This is the latest recevied weather packets stored in our database for station/object KB3UMW-13. If no packets are shown the sender has not sent any weather packets the latest 10 day(s).
| Time | Temp. | Humidity | Pressure | Rain* | Wind** | Luminosity | Snow |
|---|---|---|---|---|---|---|---|
| 1778113654 | 8.89° C | 99% | 1010.8 hPa | 0 mm | - | 0 W/m² | - |
| 1778113350 | 9.44° C | 99% | 1011.4 hPa | 0 mm | - | 0 W/m² | - |
| 1778113047 | 8.89° C | 99% | 1011.7 hPa | 0 mm | - | 1 W/m² | - |
| 1778112745 | 9.44° C | 99% | 1011.8 hPa | 0 mm | - | 1 W/m² | - |
| 1778112440 | 9.44° C | 99% | 1011.9 hPa | 0 mm | - | 1 W/m² | - |
| 1778112136 | 9.44° C | 99% | 1012.3 hPa | 0 mm | - | 2 W/m² | - |
| 1778111833 | 9.44° C | 99% | 1011.9 hPa | 0 mm | - | 3 W/m² | - |
| 1778111528 | 9.44° C | 99% | 1011.8 hPa | 0 mm | - | 3 W/m² | - |
| 1778111226 | 9.44° C | 99% | 1011.7 hPa | 0 mm | - | 5 W/m² | - |
| 1778110924 | 9.44° C | 99% | 1011.5 hPa | 0 mm | - | 5 W/m² | - |
| 1778110621 | 9.44° C | 99% | 1011.5 hPa | 0 mm | - | 8 W/m² | - |
| 1778110317 | 9.44° C | 99% | 1011.7 hPa | 0 mm | - | 8 W/m² | - |
| 1778110014 | 10° C | 99% | 1011.6 hPa | 0 mm | - | 10 W/m² | - |
| 1778109709 | 10° C | 99% | 1011.8 hPa | 0 mm | - | 13 W/m² | - |
| 1778109406 | 10° C | 99% | 1011.4 hPa | 0 mm | - | 14 W/m² | - |
| 1778109105 | 10° C | 99% | 1011.6 hPa | 0 mm | - | 18 W/m² | - |
| 1778108801 | 10° C | 99% | 1011.5 hPa | 0 mm | - | 30 W/m² | - |
| 1778108498 | 10° C | 99% | 1011.2 hPa | 0 mm | - | 20 W/m² | - |
| 1778108194 | 10° C | 99% | 1011.5 hPa | 0 mm | - | 21 W/m² | - |
| 1778107891 | 10.56° C | 99% | 1011.2 hPa | 0 mm | - | 22 W/m² | - |
| 1778107588 | 10.56° C | 99% | 1011.3 hPa | 0 mm | - | 31 W/m² | - |
| 1778107284 | 10.56° C | 99% | 1011.2 hPa | 0 mm | - | 34 W/m² | - |
| 1778106981 | 10.56° C | 99% | 1011.2 hPa | 0 mm | - | 42 W/m² | - |
| 1778106677 | 10.56° C | 99% | 1011.1 hPa | 0 mm | - | 59 W/m² | - |
| 1778106374 | 10.56° C | 99% | 1011.3 hPa | 0.51 mm | - | 56 W/m² | - |
* Rain latest hour (hover to see other rain measurements)
** Current wind speed in m/s (hover to see current wind gust speed)